sat.trackr.live / text

‹ back to catalog

STARLINK-32207

NORAD 60259 · 2024-131E

PAYLOAD ACTIVE UNKNOWN

§ Identity

Operator
Country
US
Launch date
2024-07-27
Launch site
AFETR
Launch vehicle
Mass (kg)
RCS (m²)

Purposes: comms

External: N2YO · Heavens-Above · Gunter

§ Orbital elements

Epoch: 2026-09-21T21:40:18.515712Z

Period
93.85 min
Inclination
53.1580°
Eccentricity
0.0001261
Mean motion
15.34384255 rev/d
Perigee alt
461.9 km
Apogee alt
463.6 km
Semi-major
6,840.9 km
B*
2.8680e-6
RAAN
219.3614°
Arg perigee
88.0828°
Mean anomaly
272.0319°
Rev number
12,178

§ Raw data

STARLINK-322071 60259U 24131E   26264.90299208 -.00000279  00000+0  28680-5 0  99992 60259  53.1580 219.3614 0001261  88.0828 272.0319 15.34384255121789

JSON: /api/v1/satellites/60259 · /tle

For live sub-satellite position, see the globe view (requires WebGL).

§ Visibility from observer

Set your observer location to see the next 7 days of passes ≥ 10°. The values pass through the URL so the page stays shareable.

No JS? Fill the form by hand. The geolocation button needs JavaScript.